EW7788 Weather Reports


Display with metric or nautical units.
time (UTC)temp
F
wind
direction
speed
MPH
gust
MPH
rain 1hr
in
rain 24hr
in
rain mn
in
humidity
%
barometer
mb
20260504050005 59 308 4.0 23.0 0.00 0.08 0.02 61 1008.9
20260504044602 59 71 6.0 16.0 0.00 0.08 0.02 61 1008.7
20260504043002 61 150 5.0 19.0 0.00 0.08 0.02 58 1008.6
20260504041602 61 163 8.0 19.0 0.00 0.08 0.02 58 1008.7
20260504040003 62 57 9.0 21.0 0.01 0.11 0.02 59 1008.8
20260504034604 61 327 4.0 18.0 0.01 0.11 0.02 63 1008.7
20260504033002 60 314 6.0 18.0 0.01 0.11 0.02 64 1008.9
20260504031627 60 146 9.0 24.0 0.01 0.11 0.02 64 1008.9
20260504030003 60 68 10.0 24.0 0.00 0.17 0.01 65 1009.0
20260504024605 60 342 9.0 22.0 0.00 0.17 0.01 65 1008.7
20260504023004 61 140 8.0 25.0 0.00 0.17 0.01 64 1009.1
20260504021604 61 223 11.0 27.0 0.00 0.17 0.01 65 1009.2
20260504020015 61 42 10.0 21.0 0.00 0.17 0.01 66 1009.4
20260504014504 61 29 9.0 18.0 0.00 0.20 0.01 65 1009.9
20260504013005 61 11 9.0 20.0 0.00 0.20 0.01 65 1010.2
20260504011605 61 17 9.0 19.0 0.00 0.20 0.01 64 1010.3
20260504010012 60 355 10.0 16.0 0.00 0.20 0.01 66 1010.3
20260504004515 60 26 7.0 18.0 0.00 0.20 0.01 68 1010.5
20260504003104 60 360 12.0 21.0 0.00 0.20 0.01 67 1010.4
20260504001606 59 360 9.0 23.0 0.00 0.20 0.01 68 1010.8
20260504000004 58 26 7.0 18.0 0.00 0.20 0.01 69 1011.1
20260503234629 57 28 3.0 13.0 0.00 0.20 0.01 70 1011.1
20260503233016 57 25 7.0 16.0 0.00 0.20 0.01 73 1011.0
20260503231504 56 20 1.0 9.0 0.00 0.20 0.01 78 1011.1
20260503230007 54 48 4.0 6.0 0.00 0.20 0.01 81 1011.2
20260503224604 52 73 1.0 3.0 0.00 0.20 0.01 82 1011.5
20260503223005 52 85 3.0 6.0 0.00 0.20 0.01 82 1011.5
20260503221606 50 44 2.0 4.0 0.00 0.20 0.01 84 1011.4
20260503220005 48 117 1.0 4.0 0.00 0.20 0.01 85 1011.6
20260503214606 48 260 1.0 4.0 0.00 0.20 0.01 83 1011.6
20260503213005 49 40 7.0 11.0 0.00 0.20 0.01 83 1011.4
20260503211604 50 19 3.0 10.0 0.00 0.20 0.01 83 1011.4
20260503210005 50 26 4.0 6.0 0.00 0.20 0.01 82 1011.3
20260503204603 50 36 3.0 6.0 0.00 0.20 0.01 82 1011.1
20260503203014 50 355 2.0 5.0 0.00 0.20 0.01 82 1010.9
20260503201504 50 85 1.0 3.0 0.00 0.20 0.01 84 1010.9
20260503200004 50 85 1.0 2.0 0.00 0.20 0.01 84 1010.9
20260503194604 50 85 0.0 2.0 0.00 0.20 0.01 83 1010.7
20260503193004 50 342 2.0 9.0 0.01 0.20 0.01 82 1011.0
20260503191604 51 306 1.0 2.0 0.01 0.20 0.01 81 1011.1
20260503190004 51 306 1.0 3.0 0.01 0.20 0.01 80 1011.3
20260503184604 52 306 1.0 6.0 0.01 0.20 0.01 80 1011.2
20260503183014 52 300 1.0 4.0 0.00 0.20 0.00 79 1011.3
20260503181506 52 272 2.0 9.0 0.00 0.20 0.00 80 1011.2
20260503180011 52 282 4.0 10.0 0.00 0.20 0.00 81 1011.2
20260503174504 52 303 4.0 11.0 0.00 0.20 0.00 82 1011.2
20260503173004 52 38 2.0 5.0 0.00 0.20 0.00 81 1011.2
20260503171604 52 38 2.0 5.0 0.00 0.20 0.00 80 1011.2
20260503081603 57 306 4.0 9.0 0.01 0.19 0.19 89 1010.0
20260503071615 61 254 3.0 7.0 0.01 0.18 0.18 88 1009.7